DW5979 Weather Reports


time (UTC)temp
F
wind
direction
speed
knots
gust
knots
rain 1hr
in
rain 24hr
in
rain mn
in
humidity
%
barometer
mb
20260505200719 77 245 3.5 13.9 0.00 0.00 0.00 34 1002.5
20260505200216 78 250 2.6 11.3 0.00 0.00 0.00 34 1002.5
20260505195712 79 249 7.8 13.9 0.00 0.00 0.00 32 1002.6
20260505195209 79 134 6.1 17.4 0.00 0.00 0.00 33 1002.5
20260505194707 79 301 8.7 11.3 0.00 0.00 0.00 33 1002.7
20260505194203 79 101 2.6 6.1 0.00 0.00 0.00 34 1002.5
20260505193659 80 258 0.0 7.8 0.00 0.00 0.00 33 1002.7
20260505193156 80 102 4.3 16.5 0.00 0.00 0.00 34 1002.5
20260505192655 80 218 3.5 6.1 0.00 0.00 0.00 33 1002.7
20260505192152 80 251 5.2 13.0 0.00 0.00 0.00 34 1002.7
20260505191650 78 303 3.5 9.6 0.00 0.00 0.00 35 1002.8
20260505191148 78 225 4.3 10.4 0.00 0.00 0.00 36 1002.7
20260505190644 78 239 5.2 12.2 0.00 0.00 0.00 36 1003.1
20260505190143 78 238 10.4 13.0 0.00 0.00 0.00 35 1003.2
20260505185641 78 160 0.9 13.0 0.00 0.00 0.00 36 1003.1
20260505185137 79 227 6.1 10.4 0.00 0.00 0.00 35 1003.2
20260505184633 79 209 1.7 11.3 0.00 0.00 0.00 36 1003.4
20260505184131 79 260 1.7 7.8 0.00 0.00 0.00 36 1003.3
20260505183627 80 187 7.8 13.0 0.00 0.00 0.00 34 1003.3
20260505183125 79 183 3.5 12.2 0.00 0.00 0.00 37 1003.6
20260505182621 79 243 9.6 18.2 0.00 0.00 0.00 36 1003.6
20260505182118 80 226 4.3 8.7 0.00 0.00 0.00 36 1003.4
20260505181615 78 274 3.5 6.1 0.00 0.00 0.00 38 1003.6
20260505181112 79 209 4.3 7.0 0.00 0.00 0.00 37 1003.8
20260505180608 79 289 5.2 6.1 0.00 0.00 0.00 36 1003.7
20260505180106 78 189 3.5 7.8 0.00 0.00 0.00 38 1003.8
20260505175601 78 249 3.5 8.7 0.00 0.00 0.00 37 1004.0
20260505175058 77 229 5.2 10.4 0.00 0.00 0.00 37 1003.9
20260505174555 78 253 7.8 11.3 0.00 0.00 0.00 36 1004.2
20260505174050 78 181 2.6 9.6 0.00 0.00 0.00 39 1004.1
20260505173548 79 203 2.6 5.2 0.00 0.00 0.00 37 1004.1
20260505173044 78 120 2.6 7.8 0.00 0.00 0.00 37 1004.3
20260505172542 77 190 7.0 11.3 0.00 0.00 0.00 37 1004.5
20260505172038 76 250 5.2 11.3 0.00 0.00 0.00 38 1004.5
20260505171533 76 196 2.6 7.8 0.00 0.00 0.00 38 1004.4
20260505171030 76 220 4.3 15.6 0.00 0.00 0.00 39 1004.5
20260505170527 76 162 1.7 12.2 0.00 0.00 0.00 38 1004.6
20260505170023 76 273 7.8 9.6 0.00 0.00 0.00 38 1004.9
20260505165519 76 268 11.3 13.0 0.00 0.00 0.00 38 1004.8
20260505165015 76 336 2.6 9.6 0.00 0.00 0.00 39 1005.0
20260505164511 76 213 0.0 8.7 0.00 0.00 0.00 39 1005.1
20260505164009 76 276 8.7 11.3 0.00 0.00 0.00 40 1005.1
20260505163507 75 276 7.0 14.8 0.00 0.00 0.00 39 1005.1
20260505163003 75 264 3.5 7.8 0.00 0.00 0.00 39 1005.2
20260505162457 74 156 3.5 5.2 0.00 0.00 0.00 40 1005.2
20260505161953 74 258 4.3 13.9 0.00 0.00 0.00 39 1005.4
20260505161450 74 143 3.5 10.4 0.00 0.00 0.00 42 1005.7
20260505160948 75 272 8.7 11.3 0.00 0.00 0.00 40 1005.6
20260505160446 74 207 3.5 8.7 0.00 0.00 0.00 41 1005.6
20260505152922 70 150 5.2 6.1 0.00 0.00 0.00 44 1006.2
20260505152419 70 258 3.5 5.2 0.00 0.00 0.00 47 1006.4
20260505151919 69 338 0.0 3.5 0.00 0.00 0.00 46 1006.7
20260505151415 68 247 2.6 8.7 0.00 0.00 0.00 48 1006.4
20260505150913 66 139 5.2 6.1 0.00 0.00 0.00 49 1006.7
20260505150410 65 147 2.6 7.0 0.00 0.00 0.00 49 1006.7
20260505140334 64 175 1.7 4.3 0.00 0.00 0.00 51 1006.7
20260505130258 59 208 1.7 2.6 0.00 0.00 0.00 58 1006.8
20260505124748 59 182 0.0 2.6 0.00 0.00 0.00 57 1007.2
20260505124245 59 212 0.9 2.6 0.00 0.00 0.00 56 1007.2
20260505123740 58 127 1.7 3.5 0.00 0.00 0.00 56 1006.8
20260505123237 58 120 1.7 2.6 0.00 0.00 0.00 56 1007.0
20260505122734 59 156 1.7 2.6 0.00 0.00 0.00 57 1007.1
20260505122231 59 155 0.0 4.3 0.00 0.00 0.00 56 1007.3
20260505121728 59 122 2.6 4.3 0.00 0.00 0.00 55 1007.4
20260505121224 58 110 1.7 1.7 0.00 0.00 0.00 59 1007.1
20260505120721 57 89 1.7 2.6 0.00 0.00 0.00 62 1007.4
20260505120217 58 102 3.5 3.5 0.00 0.00 0.00 61 1007.5
20260505115715 55 136 1.7 1.7 0.00 0.00 0.00 67 1007.7
20260505115214 53 89 0.0 0.9 0.00 0.00 0.00 80 1007.8
20260505114711 51 107 1.7 2.6 0.00 0.00 0.00 82 1007.8
20260505114206 50 82 1.7 2.6 0.00 0.00 0.00 83 1007.8
20260505113703 50 96 2.6 3.5 0.00 0.00 0.00 82 1007.6
20260505113200 50 70 1.7 2.6 0.00 0.00 0.00 84 1007.7
20260505112656 48 99 1.7 1.7 0.00 0.00 0.00 86 1007.7
20260505112154 46 58 0.9 1.7 0.00 0.00 0.00 90 1007.7
20260505111653 46 84 0.9 2.6 0.00 0.00 0.00 89 1007.7
20260505111149 46 80 1.7 2.6 0.00 0.00 0.00 89 1007.7
20260505110646 45 72 1.7 2.6 0.00 0.00 0.00 92 1007.5
20260505110143 44 92 2.6 3.5 0.00 0.00 0.00 92 1007.5
20260505102119 41 91 1.7 3.5 0.00 0.00 0.00 94 1007.4
20260505101618 41 86 1.7 2.6 0.00 0.00 0.00 94 1007.5
20260505101113 41 101 1.7 1.7 0.00 0.00 0.00 95 1007.6
20260505100610 41 89 1.7 1.7 0.00 0.00 0.00 95 1007.7
20260505100107 40 89 3.5 3.5 0.00 0.00 0.00 95 1007.4
20260505095603 40 99 2.6 3.5 0.00 0.00 0.00 95 1007.2
20260505095100 39 94 3.5 3.5 0.00 0.00 0.00 94 1007.2
20260505094556 39 97 4.3 4.3 0.00 0.00 0.00 94 1007.3
20260505094052 40 92 3.5 4.3 0.00 0.00 0.00 94 1007.5
20260505093549 40 93 4.3 4.3 0.00 0.00 0.00 95 1007.5
20260505093046 40 94 1.7 3.5 0.00 0.00 0.00 95 1007.2
20260505092544 39 107 2.6 3.5 0.00 0.00 0.00 95 1007.5
20260505092042 39 96 3.5 4.3 0.00 0.00 0.00 95 1007.5
20260505091538 39 91 3.5 4.3 0.00 0.00 0.00 95 1007.6
20260505091037 39 89 2.6 3.5 0.00 0.00 0.00 95 1007.4
20260505090534 39 88 2.6 3.5 0.00 0.00 0.00 95 1007.6
20260505090032 39 99 2.6 3.5 0.00 0.00 0.00 95 1007.5
20260505085530 39 91 2.6 3.5 0.00 0.00 0.00 95 1007.3
20260505085028 39 97 3.5 4.3 0.00 0.00 0.00 94 1007.5
20260505084526 39 82 1.7 3.5 0.00 0.00 0.00 95 1007.5
20260505084023 39 92 1.7 4.3 0.00 0.00 0.00 95 1007.5
20260505083520 39 93 3.5 3.5 0.00 0.00 0.00 95 1007.4
20260505083017 39 83 2.6 3.5 0.00 0.00 0.00 95 1007.5
20260505082512 39 99 3.5 4.3 0.00 0.00 0.00 94 1007.6
20260505082009 39 97 5.2 5.2 0.00 0.00 0.00 95 1007.6
20260505081506 39 79 2.6 2.6 0.00 0.00 0.00 95 1007.6
20260505081003 38 87 1.7 4.3 0.00 0.00 0.00 94 1007.6
20260505080459 39 108 4.3 5.2 0.00 0.00 0.00 94 1007.8
20260505075955 39 104 1.7 4.3 0.00 0.00 0.00 95 1007.8
20260505075451 39 100 2.6 3.5 0.00 0.00 0.00 95 1007.7
20260505074949 38 101 1.7 3.5 0.00 0.00 0.00 94 1007.8
20260505074447 38 96 1.7 3.5 0.00 0.00 0.00 94 1007.8
20260505073943 38 91 2.6 3.5 0.00 0.00 0.00 94 1007.9
20260505073441 38 94 2.6 4.3 0.00 0.00 0.00 94 1008.0
20260505072938 38 93 1.7 3.5 0.00 0.00 0.00 94 1007.8
20260505072434 38 98 2.6 3.5 0.00 0.00 0.00 94 1007.8
20260505071930 38 85 1.7 5.2 0.00 0.00 0.00 94 1007.7
20260505071426 38 87 1.7 3.5 0.00 0.00 0.00 94 1007.6
20260505070925 38 95 1.7 3.5 0.00 0.00 0.00 93 1007.8
20260505070421 38 96 3.5 4.3 0.00 0.00 0.00 94 1007.7
20260505065917 38 89 2.6 4.3 0.00 0.00 0.00 93 1007.8
20260505065413 38 94 1.7 5.2 0.00 0.00 0.00 93 1007.6
20260505064910 38 91 3.5 3.5 0.00 0.00 0.00 93 1007.8
20260505064407 38 87 2.6 4.3 0.00 0.00 0.00 93 1007.7
20260505063906 39 85 1.7 3.5 0.00 0.00 0.00 93 1007.9
20260505063402 39 86 1.7 3.5 0.00 0.00 0.00 93 1007.7
20260505062858 39 91 1.7 2.6 0.00 0.00 0.00 93 1007.6
20260505062355 39 85 0.9 3.5 0.00 0.00 0.00 92 1007.7
20260505061852 39 94 1.7 1.7 0.00 0.00 0.00 92 1007.6
20260505061351 39 96 1.7 3.5 0.00 0.00 0.00 93 1007.7
20260505060848 39 92 2.6 4.3 0.00 0.00 0.00 92 1007.7
20260505060344 39 85 2.6 4.3 0.00 0.00 0.00 92 1007.9
20260505055840 39 98 3.5 4.3 0.00 0.00 0.00 92 1007.7
20260505055336 39 98 3.5 4.3 0.00 0.00 0.00 92 1007.9
20260505054834 39 88 2.6 4.3 0.00 0.00 0.00 92 1007.6
20260505054331 39 96 2.6 3.5 0.00 0.00 0.00 92 1007.8
20260505053829 39 84 1.7 3.5 0.00 0.00 0.00 91 1007.6
20260505053326 39 99 1.7 4.3 0.00 0.00 0.00 91 1007.7
20260505052822 40 95 3.5 4.3 0.00 0.00 0.00 91 1007.8
20260505052319 40 95 3.5 3.5 0.00 0.00 0.00 91 1007.6
20260505051817 40 99 1.7 3.5 0.00 0.00 0.00 91 1007.5
20260505051314 40 73 1.7 3.5 0.00 0.00 0.00 91 1007.4
20260505050812 41 94 1.7 2.6 0.00 0.00 0.00 90 1007.6
20260505050310 41 71 1.7 3.5 0.00 0.00 0.00 91 1007.7
20260505041740 42 85 2.6 3.5 0.00 0.00 0.00 89 1007.3
20260505041237 42 98 2.6 3.5 0.00 0.00 0.00 89 1007.2
20260505040734 42 91 2.6 4.3 0.00 0.00 0.00 88 1007.3
20260505040232 42 91 1.7 4.3 0.00 0.00 0.00 88 1007.3
20260505035729 42 96 2.6 3.5 0.00 0.03 0.03 88 1007.1
20260505035224 42 105 2.6 2.6 0.00 0.03 0.03 87 1007.2
20260505034722 43 102 1.7 4.3 0.00 0.03 0.03 87 1007.2
20260505034219 43 105 3.5 3.5 0.00 0.03 0.03 87 1007.1
20260505033715 43 93 1.7 4.3 0.00 0.03 0.03 87 1006.9
20260505033213 43 96 1.7 3.5 0.00 0.03 0.03 86 1007.1
20260505032711 44 97 1.7 4.3 0.00 0.03 0.03 86 1007.2
20260505032206 44 96 3.5 3.5 0.00 0.03 0.03 86 1007.0
20260505031704 44 95 1.7 3.5 0.00 0.03 0.03 86 1007.1
20260505031200 44 108 2.6 3.5 0.00 0.03 0.03 86 1007.1
20260505030657 44 99 1.7 3.5 0.00 0.03 0.03 86 1007.0
20260505030153 44 99 3.5 3.5 0.00 0.03 0.03 85 1007.1
20260505025649 45 93 1.7 3.5 0.00 0.03 0.03 84 1007.2
20260505025148 45 99 1.7 2.6 0.00 0.03 0.03 84 1007.1
20260505024645 45 105 3.5 4.3 0.00 0.03 0.03 84 1007.0
20260505024142 45 83 2.6 3.5 0.00 0.03 0.03 84 1007.0
20260505023639 46 104 3.5 4.3 0.00 0.03 0.03 84 1007.3
20260505023137 46 99 1.7 3.5 0.00 0.03 0.03 83 1007.6
20260505022634 46 83 1.7 2.6 0.00 0.03 0.03 83 1007.1
20260505022131 47 79 0.9 1.7 0.00 0.03 0.03 82 1007.2
20260505021627 47 97 0.9 2.6 0.00 0.03 0.03 82 1007.5
20260505021124 47 93 1.7 3.5 0.00 0.03 0.03 81 1007.3
20260505020620 47 106 0.9 3.5 0.00 0.03 0.03 80 1007.4
20260505020116 48 102 1.7 3.5 0.00 0.03 0.03 81 1007.6
20260505015613 48 111 2.6 4.3 0.00 0.03 0.03 80 1007.5
20260505015110 48 69 0.9 3.5 0.00 0.03 0.03 80 1007.6
20260505014606 48 98 3.5 3.5 0.00 0.03 0.03 80 1007.7
20260505014103 48 92 1.7 1.7 0.00 0.03 0.03 80 1007.5
20260505013601 48 89 1.7 2.6 0.00 0.03 0.03 80 1007.3
20260505013058 48 109 1.7 2.6 0.00 0.03 0.03 79 1007.3
20260505012556 48 89 1.7 1.7 0.00 0.03 0.03 78 1007.1
20260505012053 49 89 1.7 2.6 0.00 0.03 0.03 78 1007.1
20260505011548 48 166 0.0 1.7 0.00 0.03 0.03 79 1007.3
20260505011046 49 111 1.7 3.5 0.00 0.03 0.03 79 1007.1
20260505010541 49 82 1.7 2.6 0.00 0.03 0.03 78 1007.1
20260505010038 49 92 2.6 3.5 0.00 0.03 0.03 78 1007.1
20260505005534 50 101 2.6 3.5 0.00 0.03 0.03 77 1006.8
20260505005032 51 89 1.7 3.5 0.00 0.03 0.03 74 1006.9
20260505004529 51 87 1.7 2.6 0.00 0.03 0.03 72 1006.8
20260505004026 51 104 0.9 2.6 0.00 0.03 0.03 74 1007.0
20260505003523 51 103 3.5 3.5 0.00 0.03 0.03 75 1006.8
20260505003020 51 91 2.6 2.6 0.00 0.03 0.03 74 1006.7
20260505002520 51 102 3.5 3.5 0.00 0.03 0.03 74 1006.7
20260505002020 51 102 2.6 3.5 0.00 0.03 0.03 72 1006.3
20260505001517 51 76 1.7 2.6 0.00 0.03 0.03 71 1006.3
20260505001014 51 83 1.7 2.6 0.00 0.03 0.03 72 1006.4
20260505000511 51 105 1.7 3.5 0.00 0.03 0.03 72 1006.1
20260505000009 52 106 0.9 2.6 0.00 0.03 0.03 69 1006.0
20260504235505 53 87 1.7 2.6 0.00 0.03 0.03 67 1005.9
20260504235002 54 75 1.7 2.6 0.00 0.03 0.03 64 1006.0
20260504234459 55 84 1.7 1.7 0.00 0.03 0.03 62 1005.9
20260504233955 56 113 0.0 0.9 0.00 0.03 0.03 61 1005.8
20260504233451 57 102 0.0 1.7 0.00 0.03 0.03 60 1005.8
20260504232948 58 69 1.7 1.7 0.00 0.03 0.03 57 1005.8
20260504232445 59 59 0.0 0.9 0.00 0.03 0.03 56 1005.8
20260504231943 60 76 0.0 0.9 0.00 0.03 0.03 54 1005.7
20260504231439 61 80 0.9 1.7 0.00 0.03 0.03 52 1005.7
20260504230935 62 89 0.0 1.7 0.00 0.03 0.03 50 1005.6
20260504230432 62 294 0.0 1.7 0.00 0.03 0.03 46 1005.5
20260504225931 62 269 0.0 2.6 0.00 0.03 0.03 48 1005.4
20260504225427 62 223 1.7 4.3 0.00 0.03 0.03 47 1005.5
20260504224925 62 272 1.7 3.5 0.00 0.03 0.03 47 1005.6
20260504224421 62 263 1.7 4.3 0.00 0.03 0.03 48 1005.6
20260504223918 62 286 1.7 3.5 0.00 0.03 0.03 47 1005.4
20260504223414 62 246 1.7 2.6 0.00 0.03 0.03 47 1005.4
20260504222910 63 267 3.5 6.1 0.00 0.03 0.03 46 1005.4
20260504222407 64 289 2.6 5.2 0.00 0.03 0.03 45 1005.5
20260504221906 64 236 1.7 3.5 0.00 0.03 0.03 45 1005.6
20260504221402 63 267 3.5 4.3 0.00 0.03 0.03 47 1005.7
20260504220859 63 269 3.5 4.3 0.00 0.03 0.03 47 1005.6
20260504220356 63 217 1.7 3.5 0.00 0.03 0.03 47 1005.6
20260504215853 62 298 5.2 8.7 0.00 0.03 0.03 47 1005.6
20260504215349 62 282 3.5 8.7 0.00 0.03 0.03 47 1005.6
20260504214845 62 291 6.1 7.8 0.00 0.03 0.03 47 1005.6
20260504214342 62 246 4.3 9.6 0.00 0.03 0.03 48 1005.6
20260504213839 61 247 6.1 11.3 0.00 0.03 0.03 47 1005.6
20260504213335 62 258 7.8 9.6 0.00 0.03 0.03 46 1005.5
20260504212833 62 302 8.7 13.9 0.00 0.03 0.03 48 1005.6
20260504212328 61 244 7.8 13.0 0.00 0.03 0.03 48 1005.5
20260504211827 62 251 6.1 10.4 0.00 0.03 0.03 47 1005.6
20260504211328 61 288 7.0 9.6 0.00 0.03 0.03 48 1005.4
20260504210825 61 266 5.2 13.9 0.00 0.03 0.03 49 1005.5
20260504210322 61 251 4.3 11.3 0.00 0.03 0.03 49 1005.5
20260504205820 61 240 4.3 9.6 0.00 0.03 0.03 48 1005.4
20260504205317 60 226 2.6 14.8 0.00 0.03 0.03 48 1005.6
20260504204815 60 306 8.7 13.9 0.00 0.03 0.03 50 1005.6
20260504204313 60 315 5.2 13.0 0.00 0.03 0.03 52 1005.5
20260504203813 60 308 13.9 16.5 0.00 0.03 0.03 51 1005.9
20260504203309 60 238 6.1 11.3 0.00 0.03 0.03 51 1005.5
20260504202804 60 265 7.8 11.3 0.00 0.03 0.03 51 1005.5
20260504202304 60 282 11.3 13.9 0.00 0.03 0.03 52 1005.5
20260504201758 60 306 10.4 13.9 0.00 0.03 0.03 53 1005.4
20260504201256 59 286 7.8 12.2 0.00 0.03 0.03 53 1005.5